When you browse on this site, cookies collect data to enhance your experience and personalize the content and advertising you see.
Visit our Privacy Policy to learn more. By continuing to use the site, you agree to this use of cookies and data.
  • In Hungary
  • List of Countries
  • For 7 days
  • Water Temperature
  • Satellite Maps
  • Weather Map
  • News
  • Weather Widgets
  • user-avatar
    Login

    Hourly Weather Arkhara

    Today, 20 January, Sunday

    Time Temperature Precipitation Wind Pressure Humidity
    00:00 -25°C° 0 mm 2 mps 750 mmHg 97%
    01:00 -26°C° 0 mm 2 mps 750 mmHg 97%
    02:00 -26°C° 0 mm 2 mps 750 mmHg 97%
    03:00 -26°C° 0 mm 2 mps 750 mmHg 96%
    04:00 -27°C° 0 mm 2 mps 750 mmHg 97%
    05:00 -27°C° 0 mm 2 mps 749 mmHg 97%
    06:00 -27°C° 0 mm 2 mps 749 mmHg 97%
    07:00 -27°C° 0 mm 2 mps 749 mmHg 97%
    08:00 -27°C° 0 mm 2 mps 749 mmHg 97%
    09:00 -23°C° 0 mm 1 mps 749 mmHg 96%
    10:00 -25°C° 0 mm 2 mps 748 mmHg 95%
    11:00 -24°C° 0 mm 2 mps 748 mmHg 93%
    12:00 -24°C° 0 mm 3 mps 748 mmHg 91%
    13:00 -23°C° 0 mm 3 mps 748 mmHg 90%
    14:00 -23°C° 0 mm 3 mps 748 mmHg 89%
    15:00 -23°C° 0 mm 3 mps 747 mmHg 89%
    16:00 -24°C° 0 mm 3 mps 748 mmHg 91%
    17:00 -26°C° 0 mm 3 mps 748 mmHg 94%
    18:00 -27°C° 0 mm 3 mps 748 mmHg 96%
    19:00 -27°C° 0 mm 2 mps 748 mmHg 96%
    20:00 -28°C° 0 mm 2 mps 748 mmHg 96%
    21:00 -29°C° 0 mm 2 mps 748 mmHg 96%
    22:00 -29°C° 0 mm 2 mps 748 mmHg 97%
    23:00 -29°C° 0 mm 2 mps 748 mmHg 97%

    Tomorrow, 21 January, Monday

    Time Temperature Precipitation Wind Pressure Humidity
    00:00 -30°C° 0 mm 2 mps 748 mmHg 97%
    01:00 -30°C° 0 mm 2 mps 748 mmHg 98%
    02:00 -28°C° 0 mm 1 mps 748 mmHg 98%
    03:00 -28°C° 0 mm 1 mps 748 mmHg 98%
    04:00 -28°C° 0 mm 1 mps 748 mmHg 98%
    05:00 -29°C° 0 mm 1 mps 748 mmHg 97%
    06:00 -29°C° 0 mm 1 mps 748 mmHg 97%
    07:00 -29°C° 0 mm 1 mps 748 mmHg 97%
    08:00 -28°C° 0 mm 1 mps 748 mmHg 96%
    09:00 -28°C° 0 mm 1 mps 748 mmHg 95%
    10:00 -25°C° 0 mm 1 mps 748 mmHg 93%
    11:00 -27°C° 0 mm 2 mps 747 mmHg 90%
    12:00 -25°C° 0 mm 2 mps 747 mmHg 88%
    13:00 -24°C° 0 mm 2 mps 747 mmHg 89%
    14:00 -24°C° 0 mm 2 mps 746 mmHg 90%
    15:00 -23°C° 0 mm 2 mps 746 mmHg 90%
    16:00 -24°C° 0 mm 2 mps 746 mmHg 92%
    17:00 -23°C° 0 mm 1 mps 746 mmHg 94%
    18:00 -24°C° 0 mm 1 mps 747 mmHg 96%
    19:00 -25°C° 0 mm 1 mps 747 mmHg 96%
    20:00 -25°C° 0 mm 1 mps 747 mmHg 96%
    21:00 -25°C° 0 mm 1 mps 746 mmHg 96%
    22:00 -26°C° 0 mm 0 mps 746 mmHg 96%
    23:00 -26°C° 0 mm 0 mps 746 mmHg 96%

    Day after tomorrow, 22 January, Tuesday

    Time Temperature Precipitation Wind Pressure Humidity
    00:00 -26°C° 0 mm 0 mps 746 mmHg 97%
    01:00 -26°C° 0 mm 0 mps 746 mmHg 97%
    02:00 -26°C° 0 mm 0 mps 746 mmHg 97%
    03:00 -26°C° 0 mm 0 mps 746 mmHg 97%
    04:00 -26°C° 0 mm 0 mps 746 mmHg 97%
    05:00 -26°C° 0 mm 0 mps 746 mmHg 97%
    06:00 -26°C° 0 mm 0 mps 746 mmHg 97%
    07:00 -25°C° 0 mm 0 mps 746 mmHg 97%
    08:00 -25°C° 0 mm 0 mps 746 mmHg 96%
    09:00 -24°C° 0 mm 0 mps 746 mmHg 96%
    10:00 -23°C° 0 mm 0 mps 746 mmHg 93%
    11:00 -21°C° 0 mm 0 mps 746 mmHg 91%
    12:00 -19°C° 0 mm 0 mps 745 mmHg 88%
    13:00 -18°C° 0 mm 1 mps 745 mmHg 88%
    14:00 -18°C° 0 mm 1 mps 745 mmHg 88%
    15:00 -17°C° 0 mm 1 mps 745 mmHg 89%
    16:00 -21°C° 0 mm 2 mps 745 mmHg 91%
    17:00 -23°C° 0 mm 2 mps 746 mmHg 93%
    18:00 -25°C° 0 mm 2 mps 747 mmHg 96%
    19:00 -26°C° 0 mm 2 mps 747 mmHg 96%
    20:00 -26°C° 0 mm 2 mps 747 mmHg 96%
    21:00 -27°C° 0 mm 2 mps 748 mmHg 96%
    22:00 -28°C° 0 mm 2 mps 748 mmHg 96%
    23:00 -28°C° 0 mm 2 mps 748 mmHg 95%

    23 January, Wednesday

    Time Temperature Precipitation Wind Pressure Humidity
    00:00 -29°C° 0 mm 2 mps 748 mmHg 95%
    01:00 -29°C° 0 mm 2 mps 749 mmHg 95%
    02:00 -30°C° 0 mm 2 mps 749 mmHg 95%
    03:00 -30°C° 0 mm 2 mps 749 mmHg 95%
    04:00 -31°C° 0 mm 2 mps 750 mmHg 95%
    05:00 -31°C° 0 mm 2 mps 750 mmHg 95%
    06:00 -30°C° 0 mm 1 mps 750 mmHg 95%
    07:00 -29°C° 0 mm 1 mps 751 mmHg 94%
    08:00 -29°C° 0 mm 1 mps 752 mmHg 93%
    09:00 -29°C° 0 mm 1 mps 753 mmHg 92%
    10:00 -27°C° 0 mm 1 mps 753 mmHg 90%
    11:00 -24°C° 0 mm 1 mps 753 mmHg 87%
    12:00 -25°C° 0 mm 2 mps 754 mmHg 85%
    13:00 -25°C° 0 mm 2 mps 754 mmHg 86%
    14:00 -24°C° 0 mm 2 mps 754 mmHg 87%
    15:00 -23°C° 0 mm 2 mps 755 mmHg 88%
    16:00 -25°C° 0 mm 2 mps 755 mmHg 90%
    17:00 -26°C° 0 mm 2 mps 756 mmHg 93%
    18:00 -27°C° 0 mm 2 mps 757 mmHg 95%
    19:00 -25°C° 0 mm 1 mps 757 mmHg 95%
    20:00 -25°C° 0 mm 1 mps 758 mmHg 95%
    21:00 -27°C° 0 mm 1 mps 758 mmHg 95%
    22:00 -27°C° 0 mm 1 mps 758 mmHg 95%
    23:00 -27°C° 0 mm 1 mps 759 mmHg 96%

    24 January, Thursday

    Time Temperature Precipitation Wind Pressure Humidity
    00:00 -26°C° 0 mm 0 mps 759 mmHg 96%
    01:00 -27°C° 0 mm 0 mps 759 mmHg 96%
    02:00 -27°C° 0 mm 0 mps 759 mmHg 96%
    03:00 -27°C° 0 mm 0 mps 759 mmHg 96%
    04:00 -27°C° 0 mm 0 mps 759 mmHg 96%
    05:00 -27°C° 0 mm 0 mps 760 mmHg 96%
    06:00 -27°C° 0 mm 0 mps 760 mmHg 96%
    07:00 -27°C° 0 mm 0 mps 760 mmHg 95%
    08:00 -26°C° 0 mm 0 mps 760 mmHg 95%
    09:00 -26°C° 0 mm 0 mps 760 mmHg 94%
    10:00 -24°C° 0 mm 0 mps 760 mmHg 92%
    11:00 -22°C° 0 mm 0 mps 760 mmHg 90%
    12:00 -20°C° 0 mm 0 mps 760 mmHg 88%
    13:00 -19°C° 0 mm 1 mps 760 mmHg 89%
    14:00 -18°C° 0 mm 1 mps 759 mmHg 89%
    15:00 -18°C° 0 mm 1 mps 759 mmHg 89%
    16:00 -19°C° 0 mm 1 mps 759 mmHg 92%
    17:00 -20°C° 0 mm 1 mps 760 mmHg 94%
    18:00 -22°C° 0 mm 1 mps 760 mmHg 96%
    19:00 -22°C° 0 mm 1 mps 760 mmHg 96%
    20:00 -22°C° 0 mm 1 mps 760 mmHg 97%
    21:00 -22°C° 0 mm 1 mps 760 mmHg 97%
    22:00 -22°C° 0 mm 1 mps 760 mmHg 97%
    23:00 -22°C° 0 mm 1 mps 760 mmHg 97%

    25 January, Friday

    Time Temperature Precipitation Wind Pressure Humidity
    00:00 -22°C° 0 mm 1 mps 760 mmHg 97%
    01:00 -22°C° 0 mm 1 mps 760 mmHg 97%
    02:00 -23°C° 0 mm 1 mps 760 mmHg 97%
    03:00 -23°C° 0 mm 1 mps 760 mmHg 97%
    04:00 -26°C° 0 mm 2 mps 760 mmHg 97%
    05:00 -26°C° 0 mm 2 mps 760 mmHg 97%
    06:00 -27°C° 0 mm 2 mps 760 mmHg 97%
    07:00 -27°C° 0 mm 2 mps 760 mmHg 97%
    08:00 -27°C° 0 mm 2 mps 760 mmHg 96%
    09:00 -27°C° 0 mm 2 mps 760 mmHg 96%
    10:00 -25°C° 0 mm 2 mps 760 mmHg 94%
    11:00 -23°C° 0 mm 2 mps 760 mmHg 93%
    12:00 -22°C° 0 mm 3 mps 759 mmHg 91%
    13:00 -22°C° 0 mm 3 mps 759 mmHg 91%
    14:00 -21°C° 0 mm 3 mps 759 mmHg 90%
    15:00 -19°C° 0 mm 3 mps 758 mmHg 90%
    16:00 -22°C° 0 mm 3 mps 759 mmHg 92%
    17:00 -23°C° 0 mm 3 mps 759 mmHg 95%
    18:00 -24°C° 0 mm 3 mps 759 mmHg 97%
    19:00 -25°C° 0 mm 3 mps 759 mmHg 97%
    20:00 -25°C° 0 mm 2 mps 759 mmHg 97%
    21:00 -25°C° 0 mm 2 mps 759 mmHg 97%
    22:00 -26°C° 0 mm 2 mps 759 mmHg 97%
    23:00 -26°C° 0 mm 2 mps 758 mmHg 97%
    Show more